owner,sensor,date,latitude,longitude,vertical_datum,wind_speed,wind_to_direction,wind_speed_of_gust,qcFlag 
WAVCIS,ioos:station:WAVCIS:CSI15:1,2009-05-01T00:00:00Z,28.8332,-90.8320,10.0,8.32,113.0,,'11111222,11111222,99999999' 
WAVCIS,ioos:station:WAVCIS:CSI15:1,2009-05-01T01:00:00Z,28.8332,-90.8320,10.0,7.39,110.0,,'11111222,11111222,99999999' 
WAVCIS,ioos:station:WAVCIS:CSI15:1,2009-05-01T02:00:00Z,28.8332,-90.8320,10.0,7.63,111.0,,'11111222,11111222,99999999' 
WAVCIS,ioos:station:WAVCIS:CSI15:1,2009-05-01T03:00:00Z,28.8332,-90.8320,10.0,8.53,118.0,,'11111222,11111222,99999999' 
WAVCIS,ioos:station:WAVCIS:CSI15:1,2009-05-01T04:00:00Z,28.8332,-90.8320,10.0,7.68,119.0,,'11111222,11111222,99999999' 
WAVCIS,ioos:station:WAVCIS:CSI15:1,2009-05-01T05:00:00Z,28.8332,-90.8320,10.0,7.85,123.0,,'11111222,11111222,99999999' 
WAVCIS,ioos:station:WAVCIS:CSI15:1,2009-05-01T06:00:00Z,28.8332,-90.8320,10.0,7.39,124.0,,'11111222,11111222,99999999' 
WAVCIS,ioos:station:WAVCIS:CSI15:1,2009-05-01T07:00:00Z,28.8332,-90.8320,10.0,5.969,122.0,,'11111222,11111222,99999999' 
WAVCIS,ioos:station:WAVCIS:CSI15:1,2009-05-01T08:00:00Z,28.8332,-90.8320,10.0,7.18,127.0,,'11111222,11111222,99999999' 
WAVCIS,ioos:station:WAVCIS:CSI15:1,2009-05-01T09:00:00Z,28.8332,-90.8320,10.0,7.04,127.0,,'11111222,11111222,99999999' 
WAVCIS,ioos:station:WAVCIS:CSI15:1,2009-05-01T10:00:00Z,28.8332,-90.8320,10.0,7.09,126.0,,'11111222,11111222,99999999' 
WAVCIS,ioos:station:WAVCIS:CSI15:1,2009-05-01T11:00:00Z,28.8332,-90.8320,10.0,6.884,127.0,,'11111222,11111222,99999999' 
WAVCIS,ioos:station:WAVCIS:CSI15:1,2009-05-01T12:00:00Z,28.8332,-90.8320,10.0,6.708,137.0,,'11111222,11111222,99999999' 
WAVCIS,ioos:station:WAVCIS:CSI15:1,2009-05-01T13:00:00Z,28.8332,-90.8320,10.0,6.82,133.0,,'11111222,11111222,99999999' 
WAVCIS,ioos:station:WAVCIS:CSI15:1,2009-05-01T14:00:00Z,28.8332,-90.8320,10.0,6.06,137.0,,'11111222,11111222,99999999' 
WAVCIS,ioos:station:WAVCIS:CSI15:1,2009-05-01T15:00:00Z,28.8332,-90.8320,10.0,5.736,126.0,,'11111222,11111222,99999999' 
WAVCIS,ioos:station:WAVCIS:CSI15:1,2009-05-01T16:00:00Z,28.8332,-90.8320,10.0,4.928,119.0,,'11111222,11111222,99999999' 
WAVCIS,ioos:station:WAVCIS:CSI15:1,2009-05-01T17:00:00Z,28.8332,-90.8320,10.0,4.853,133.0,,'11111222,11111222,99999999' 
WAVCIS,ioos:station:WAVCIS:CSI15:1,2009-05-01T18:00:00Z,28.8332,-90.8320,10.0,4.995,127.0,,'11111222,11111222,99999999' 
WAVCIS,ioos:station:WAVCIS:CSI15:1,2009-05-01T19:00:00Z,28.8332,-90.8320,10.0,4.756,115.0,,'11111222,11111222,99999999' 
WAVCIS,ioos:station:WAVCIS:CSI15:1,2009-05-01T20:00:00Z,28.8332,-90.8320,10.0,5.035,117.0,,'11111222,11111222,99999999' 
WAVCIS,ioos:station:WAVCIS:CSI15:1,2009-05-01T21:00:00Z,28.8332,-90.8320,10.0,5.356,125.0,,'11111222,11111222,99999999' 
WAVCIS,ioos:station:WAVCIS:CSI15:1,2009-05-01T22:00:00Z,28.8332,-90.8320,10.0,5.524,127.0,,'11111222,11111222,99999999' 
WAVCIS,ioos:station:WAVCIS:CSI15:1,2009-05-01T23:00:00Z,28.8332,-90.8320,10.0,5.752,124.0,,'11111222,11111222,99999999' 
WAVCIS,ioos:station:WAVCIS:CSI15:1,2009-05-02T00:00:00Z,28.8332,-90.8320,10.0,6.3,124.0,,'11111222,11111222,99999999' 
WAVCIS,ioos:station:WAVCIS:CSI15:1,2009-05-02T01:00:00Z,28.8332,-90.8320,10.0,7.59,125.0,,'11111222,11111222,99999999' 
WAVCIS,ioos:station:WAVCIS:CSI15:1,2009-05-02T02:00:00Z,28.8332,-90.8320,10.0,7.82,126.0,,'11111222,11111222,99999999' 
WAVCIS,ioos:station:WAVCIS:CSI15:1,2009-05-02T03:00:00Z,28.8332,-90.8320,10.0,6.376,124.0,,'11111222,11111222,99999999' 
WAVCIS,ioos:station:WAVCIS:CSI15:1,2009-05-02T04:00:00Z,28.8332,-90.8320,10.0,6.841,126.0,,'11111222,11111222,99999999' 
WAVCIS,ioos:station:WAVCIS:CSI15:1,2009-05-02T05:00:00Z,28.8332,-90.8320,10.0,6.673,133.0,,'11111222,11111222,99999999' 
WAVCIS,ioos:station:WAVCIS:CSI15:1,2009-05-02T06:00:00Z,28.8332,-90.8320,10.0,7.3,132.0,,'11111222,11111222,99999999' 
WAVCIS,ioos:station:WAVCIS:CSI15:1,2009-05-02T07:00:00Z,28.8332,-90.8320,10.0,7.05,140.0,,'11111222,11111222,99999999' 
WAVCIS,ioos:station:WAVCIS:CSI15:1,2009-05-02T08:00:00Z,28.8332,-90.8320,10.0,7.53,142.0,,'11111222,11111222,99999999' 
WAVCIS,ioos:station:WAVCIS:CSI15:1,2009-05-02T09:00:00Z,28.8332,-90.8320,10.0,7.7,143.0,,'11111222,11111222,99999999' 
WAVCIS,ioos:station:WAVCIS:CSI15:1,2009-05-02T10:00:00Z,28.8332,-90.8320,10.0,6.009,148.0,,'11111222,11111222,99999999' 
WAVCIS,ioos:station:WAVCIS:CSI15:1,2009-05-02T11:00:00Z,28.8332,-90.8320,10.0,4.576,147.0,,'11111222,11111222,99999999' 
WAVCIS,ioos:station:WAVCIS:CSI15:1,2009-05-02T12:00:00Z,28.8332,-90.8320,10.0,3.81,144.0,,'11111222,11111222,99999999' 
WAVCIS,ioos:station:WAVCIS:CSI15:1,2009-05-02T13:00:00Z,28.8332,-90.8320,10.0,4.461,130.0,,'11111222,11111222,99999999' 
WAVCIS,ioos:station:WAVCIS:CSI15:1,2009-05-02T14:00:00Z,28.8332,-90.8320,10.0,4.86,138.0,,'11111222,11111222,99999999' 
WAVCIS,ioos:station:WAVCIS:CSI15:1,2009-05-02T15:00:00Z,28.8332,-90.8320,10.0,5.348,142.0,,'11111222,11111222,99999999' 
WAVCIS,ioos:station:WAVCIS:CSI15:1,2009-05-02T16:00:00Z,28.8332,-90.8320,10.0,6.118,132.0,,'11111222,11111222,99999999' 
WAVCIS,ioos:station:WAVCIS:CSI15:1,2009-05-02T17:00:00Z,28.8332,-90.8320,10.0,6.995,129.0,,'11111222,11111222,99999999' 
WAVCIS,ioos:station:WAVCIS:CSI15:1,2009-05-02T18:00:00Z,28.8332,-90.8320,10.0,7.01,133.0,,'11111222,11111222,99999999' 
WAVCIS,ioos:station:WAVCIS:CSI15:1,2009-05-02T19:00:00Z,28.8332,-90.8320,10.0,7.33,134.0,,'11111222,11111222,99999999' 
WAVCIS,ioos:station:WAVCIS:CSI15:1,2009-05-02T20:00:00Z,28.8332,-90.8320,10.0,7.01,135.0,,'11111222,11111222,99999999' 
WAVCIS,ioos:station:WAVCIS:CSI15:1,2009-05-02T21:00:00Z,28.8332,-90.8320,10.0,7.61,132.0,,'11111222,11111222,99999999' 
WAVCIS,ioos:station:WAVCIS:CSI15:1,2009-05-02T22:00:00Z,28.8332,-90.8320,10.0,6.846,134.0,,'11111222,11111222,99999999' 
WAVCIS,ioos:station:WAVCIS:CSI15:1,2009-05-02T23:00:00Z,28.8332,-90.8320,10.0,8.21,134.0,,'11111222,11111222,99999999' 
WAVCIS,ioos:station:WAVCIS:CSI15:1,2009-05-03T00:00:00Z,28.8332,-90.8320,10.0,7.9,134.0,,'11111222,11111222,99999999' 
WAVCIS,ioos:station:WAVCIS:CSI15:1,2009-05-03T01:00:00Z,28.8332,-90.8320,10.0,9.47,134.0,,'11111222,11111222,99999999' 
WAVCIS,ioos:station:WAVCIS:CSI15:1,2009-05-03T02:00:00Z,28.8332,-90.8320,10.0,10.99,133.0,,'11111222,11111222,99999999' 
WAVCIS,ioos:station:WAVCIS:CSI15:1,2009-05-03T03:00:00Z,28.8332,-90.8320,10.0,11.52,134.0,,'11111222,11111222,99999999' 
WAVCIS,ioos:station:WAVCIS:CSI15:1,2009-05-03T04:00:00Z,28.8332,-90.8320,10.0,10.68,133.0,,'11111222,11111222,99999999' 
WAVCIS,ioos:station:WAVCIS:CSI15:1,2009-05-03T05:00:00Z,28.8332,-90.8320,10.0,10.68,137.0,,'11111222,11111222,99999999' 
WAVCIS,ioos:station:WAVCIS:CSI15:1,2009-05-03T06:00:00Z,28.8332,-90.8320,10.0,10.61,140.0,,'11111222,11111222,99999999' 
WAVCIS,ioos:station:WAVCIS:CSI15:1,2009-05-03T07:00:00Z,28.8332,-90.8320,10.0,9.58,139.0,,'11111222,11111222,99999999' 
WAVCIS,ioos:station:WAVCIS:CSI15:1,2009-05-03T08:00:00Z,28.8332,-90.8320,10.0,8.84,138.0,,'11111222,11111222,99999999' 
WAVCIS,ioos:station:WAVCIS:CSI15:1,2009-05-03T09:00:00Z,28.8332,-90.8320,10.0,7.74,130.0,,'11111222,11111222,99999999' 
WAVCIS,ioos:station:WAVCIS:CSI15:1,2009-05-03T10:00:00Z,28.8332,-90.8320,10.0,8.76,137.0,,'11111222,11111222,99999999' 
WAVCIS,ioos:station:WAVCIS:CSI15:1,2009-05-03T11:00:00Z,28.8332,-90.8320,10.0,12.27,129.0,,'11111222,11111222,99999999' 
WAVCIS,ioos:station:WAVCIS:CSI15:1,2009-05-03T12:00:00Z,28.8332,-90.8320,10.0,8.78,140.0,,'11111222,11111222,99999999' 
WAVCIS,ioos:station:WAVCIS:CSI15:1,2009-05-03T13:00:00Z,28.8332,-90.8320,10.0,10.44,136.0,,'11111222,11111222,99999999' 
WAVCIS,ioos:station:WAVCIS:CSI15:1,2009-05-03T14:00:00Z,28.8332,-90.8320,10.0,11.76,141.0,,'11111222,11111222,99999999' 
WAVCIS,ioos:station:WAVCIS:CSI15:1,2009-05-03T15:00:00Z,28.8332,-90.8320,10.0,11.82,145.0,,'11111222,11111222,99999999' 
WAVCIS,ioos:station:WAVCIS:CSI15:1,2009-05-03T16:00:00Z,28.8332,-90.8320,10.0,9.4,147.0,,'11111222,11111222,99999999' 
WAVCIS,ioos:station:WAVCIS:CSI15:1,2009-05-03T17:00:00Z,28.8332,-90.8320,10.0,8.04,146.0,,'11111222,11111222,99999999' 
WAVCIS,ioos:station:WAVCIS:CSI15:1,2009-05-03T18:00:00Z,28.8332,-90.8320,10.0,5.737,144.0,,'11111222,11111222,99999999' 
WAVCIS,ioos:station:WAVCIS:CSI15:1,2009-05-03T19:00:00Z,28.8332,-90.8320,10.0,5.593,140.0,,'11111222,11111222,99999999' 
WAVCIS,ioos:station:WAVCIS:CSI15:1,2009-05-03T20:00:00Z,28.8332,-90.8320,10.0,4.627,136.0,,'11111222,11111222,99999999' 
WAVCIS,ioos:station:WAVCIS:CSI15:1,2009-05-03T21:00:00Z,28.8332,-90.8320,10.0,5.698,127.0,,'11111222,11111222,99999999' 
WAVCIS,ioos:station:WAVCIS:CSI15:1,2009-05-03T22:00:00Z,28.8332,-90.8320,10.0,6.338,123.0,,'11111222,11111222,99999999' 
WAVCIS,ioos:station:WAVCIS:CSI15:1,2009-05-03T23:00:00Z,28.8332,-90.8320,10.0,5.234,121.0,,'11111222,11111222,99999999' 
WAVCIS,ioos:station:WAVCIS:CSI15:1,2009-05-04T00:00:00Z,28.8332,-90.8320,10.0,6.265,121.0,,'11111222,11111222,99999999' 
WAVCIS,ioos:station:WAVCIS:CSI15:1,2009-05-04T01:00:00Z,28.8332,-90.8320,10.0,7.72,124.0,,'11111222,11111222,99999999' 
WAVCIS,ioos:station:WAVCIS:CSI15:1,2009-05-04T02:00:00Z,28.8332,-90.8320,10.0,9.48,122.0,,'11111222,11111222,99999999' 
WAVCIS,ioos:station:WAVCIS:CSI15:1,2009-05-04T03:00:00Z,28.8332,-90.8320,10.0,10.37,131.0,,'11111222,11111222,99999999' 
WAVCIS,ioos:station:WAVCIS:CSI15:1,2009-05-04T04:00:00Z,28.8332,-90.8320,10.0,7.76,137.0,,'11111222,11111222,99999999' 
WAVCIS,ioos:station:WAVCIS:CSI15:1,2009-05-04T05:00:00Z,28.8332,-90.8320,10.0,8.37,150.0,,'11111222,11111222,99999999' 
WAVCIS,ioos:station:WAVCIS:CSI15:1,2009-05-04T06:00:00Z,28.8332,-90.8320,10.0,7.99,157.0,,'11111222,11111222,99999999' 
WAVCIS,ioos:station:WAVCIS:CSI15:1,2009-05-04T07:00:00Z,28.8332,-90.8320,10.0,8.47,153.0,,'11111222,11111222,99999999' 
WAVCIS,ioos:station:WAVCIS:CSI15:1,2009-05-04T08:00:00Z,28.8332,-90.8320,10.0,8.62,160.0,,'11111222,11111222,99999999' 
WAVCIS,ioos:station:WAVCIS:CSI15:1,2009-05-04T09:00:00Z,28.8332,-90.8320,10.0,9.22,162.0,,'11111222,11111222,99999999' 
WAVCIS,ioos:station:WAVCIS:CSI15:1,2009-05-04T10:00:00Z,28.8332,-90.8320,10.0,9.76,172.0,,'11111222,11111222,99999999' 
WAVCIS,ioos:station:WAVCIS:CSI15:1,2009-05-04T11:00:00Z,28.8332,-90.8320,10.0,9.11,178.0,,'11111222,11111222,99999999' 
WAVCIS,ioos:station:WAVCIS:CSI15:1,2009-05-04T12:00:00Z,28.8332,-90.8320,10.0,7.01,197.0,,'11111222,11111222,99999999' 
WAVCIS,ioos:station:WAVCIS:CSI15:1,2009-05-04T13:00:00Z,28.8332,-90.8320,10.0,7.43,188.0,,'11111222,11111222,99999999' 
WAVCIS,ioos:station:WAVCIS:CSI15:1,2009-05-04T14:00:00Z,28.8332,-90.8320,10.0,6.46,200.0,,'11111222,11111222,99999999' 
WAVCIS,ioos:station:WAVCIS:CSI15:1,2009-05-04T15:00:00Z,28.8332,-90.8320,10.0,7.28,193.0,,'11111222,11111222,99999999' 
WAVCIS,ioos:station:WAVCIS:CSI15:1,2009-05-04T16:00:00Z,28.8332,-90.8320,10.0,7.45,176.0,,'11111222,11111222,99999999' 
WAVCIS,ioos:station:WAVCIS:CSI15:1,2009-05-04T17:00:00Z,28.8332,-90.8320,10.0,4.046,209.0,,'11111222,11111222,99999999' 
WAVCIS,ioos:station:WAVCIS:CSI15:1,2009-05-04T18:00:00Z,28.8332,-90.8320,10.0,3.529,205.0,,'11111222,11111222,99999999' 
WAVCIS,ioos:station:WAVCIS:CSI15:1,2009-05-04T19:00:00Z,28.8332,-90.8320,10.0,4.268,191.0,,'11111222,11111222,99999999' 
WAVCIS,ioos:station:WAVCIS:CSI15:1,2009-05-04T20:00:00Z,28.8332,-90.8320,10.0,0.177,177.0,,'11111222,11111222,99999999' 
WAVCIS,ioos:station:WAVCIS:CSI15:1,2009-05-04T21:00:00Z,28.8332,-90.8320,10.0,2.765,64.0,,'11111222,11111222,99999999' 
WAVCIS,ioos:station:WAVCIS:CSI15:1,2009-05-04T22:00:00Z,28.8332,-90.8320,10.0,1.188,147.0,,'11111222,11111222,99999999' 
WAVCIS,ioos:station:WAVCIS:CSI15:1,2009-05-04T23:00:00Z,28.8332,-90.8320,10.0,3.891,188.0,,'11111222,11111222,99999999' 
WAVCIS,ioos:station:WAVCIS:CSI15:1,2009-05-05T00:00:00Z,28.8332,-90.8320,10.0,2.987,187.0,,'11111222,11111222,99999999' 
WAVCIS,ioos:station:WAVCIS:CSI15:1,2009-05-05T01:00:00Z,28.8332,-90.8320,10.0,3.416,181.0,,'11111222,11111222,99999999' 
WAVCIS,ioos:station:WAVCIS:CSI15:1,2009-05-05T02:00:00Z,28.8332,-90.8320,10.0,3.199,143.0,,'11111222,11111222,99999999' 
WAVCIS,ioos:station:WAVCIS:CSI15:1,2009-05-05T03:00:00Z,28.8332,-90.8320,10.0,3.017,131.0,,'11111222,11111222,99999999' 
WAVCIS,ioos:station:WAVCIS:CSI15:1,2009-05-05T04:00:00Z,28.8332,-90.8320,10.0,4.032,148.0,,'11111222,11111222,99999999' 
WAVCIS,ioos:station:WAVCIS:CSI15:1,2009-05-05T05:00:00Z,28.8332,-90.8320,10.0,5.194,153.0,,'11111222,11111222,99999999' 
WAVCIS,ioos:station:WAVCIS:CSI15:1,2009-05-05T06:00:00Z,28.8332,-90.8320,10.0,4.96,162.0,,'11111222,11111222,99999999' 
WAVCIS,ioos:station:WAVCIS:CSI15:1,2009-05-05T07:00:00Z,28.8332,-90.8320,10.0,4.652,168.0,,'11111222,11111222,99999999' 
WAVCIS,ioos:station:WAVCIS:CSI15:1,2009-05-05T08:00:00Z,28.8332,-90.8320,10.0,5.943,155.0,,'11111222,11111222,99999999' 
WAVCIS,ioos:station:WAVCIS:CSI15:1,2009-05-05T09:00:00Z,28.8332,-90.8320,10.0,6.006,158.0,,'11111222,11111222,99999999' 
WAVCIS,ioos:station:WAVCIS:CSI15:1,2009-05-05T10:00:00Z,28.8332,-90.8320,10.0,5.68,149.0,,'11111222,11111222,99999999' 
WAVCIS,ioos:station:WAVCIS:CSI15:1,2009-05-05T11:00:00Z,28.8332,-90.8320,10.0,6.433,152.0,,'11111222,11111222,99999999' 
WAVCIS,ioos:station:WAVCIS:CSI15:1,2009-05-05T12:00:00Z,28.8332,-90.8320,10.0,7.77,148.0,,'11111222,11111222,99999999' 
WAVCIS,ioos:station:WAVCIS:CSI15:1,2009-05-05T13:00:00Z,28.8332,-90.8320,10.0,6.392,151.0,,'11111222,11111222,99999999' 
WAVCIS,ioos:station:WAVCIS:CSI15:1,2009-05-05T14:00:00Z,28.8332,-90.8320,10.0,8.0,149.0,,'11111222,11111222,99999999' 
WAVCIS,ioos:station:WAVCIS:CSI15:1,2009-05-05T15:00:00Z,28.8332,-90.8320,10.0,6.549,157.0,,'11111222,11111222,99999999' 
WAVCIS,ioos:station:WAVCIS:CSI15:1,2009-05-05T16:00:00Z,28.8332,-90.8320,10.0,5.337,167.0,,'11111222,11111222,99999999' 
WAVCIS,ioos:station:WAVCIS:CSI15:1,2009-05-05T17:00:00Z,28.8332,-90.8320,10.0,5.071,163.0,,'11111222,11111222,99999999' 
WAVCIS,ioos:station:WAVCIS:CSI15:1,2009-05-05T18:00:00Z,28.8332,-90.8320,10.0,4.705,156.0,,'11111222,11111222,99999999' 
WAVCIS,ioos:station:WAVCIS:CSI15:1,2009-05-05T19:00:00Z,28.8332,-90.8320,10.0,4.159,156.0,,'11111222,11111222,99999999' 
WAVCIS,ioos:station:WAVCIS:CSI15:1,2009-05-05T20:00:00Z,28.8332,-90.8320,10.0,4.715,146.0,,'11111222,11111222,99999999' 
WAVCIS,ioos:station:WAVCIS:CSI15:1,2009-05-05T21:00:00Z,28.8332,-90.8320,10.0,4.179,155.0,,'11111222,11111222,99999999' 
WAVCIS,ioos:station:WAVCIS:CSI15:1,2009-05-05T22:00:00Z,28.8332,-90.8320,10.0,4.748,145.0,,'11111222,11111222,99999999' 
WAVCIS,ioos:station:WAVCIS:CSI15:1,2009-05-05T23:00:00Z,28.8332,-90.8320,10.0,4.647,141.0,,'11111222,11111222,99999999' 
WAVCIS,ioos:station:WAVCIS:CSI15:1,2009-05-06T00:00:00Z,28.8332,-90.8320,10.0,6.313,133.0,,'11111222,11111222,99999999' 
WAVCIS,ioos:station:WAVCIS:CSI15:1,2009-05-06T01:00:00Z,28.8332,-90.8320,10.0,6.17,142.0,,'11111222,11111222,99999999' 
WAVCIS,ioos:station:WAVCIS:CSI15:1,2009-05-06T02:00:00Z,28.8332,-90.8320,10.0,6.798,130.0,,'11111222,11111222,99999999' 
WAVCIS,ioos:station:WAVCIS:CSI15:1,2009-05-06T03:00:00Z,28.8332,-90.8320,10.0,8.57,133.0,,'11111222,11111222,99999999' 
WAVCIS,ioos:station:WAVCIS:CSI15:1,2009-05-06T04:00:00Z,28.8332,-90.8320,10.0,9.03,132.0,,'11111222,11111222,99999999' 
WAVCIS,ioos:station:WAVCIS:CSI15:1,2009-05-06T05:00:00Z,28.8332,-90.8320,10.0,11.5,131.0,,'11111222,11111222,99999999' 
WAVCIS,ioos:station:WAVCIS:CSI15:1,2009-05-06T06:00:00Z,28.8332,-90.8320,10.0,11.83,138.0,,'11111222,11111222,99999999' 
WAVCIS,ioos:station:WAVCIS:CSI15:1,2009-05-06T07:00:00Z,28.8332,-90.8320,10.0,11.66,141.0,,'11111222,11111222,99999999' 
WAVCIS,ioos:station:WAVCIS:CSI15:1,2009-05-06T08:00:00Z,28.8332,-90.8320,10.0,12.44,146.0,,'11111222,11111222,99999999' 
WAVCIS,ioos:station:WAVCIS:CSI15:1,2009-05-06T09:00:00Z,28.8332,-90.8320,10.0,11.21,149.0,,'11111222,11111222,99999999' 
WAVCIS,ioos:station:WAVCIS:CSI15:1,2009-05-06T10:00:00Z,28.8332,-90.8320,10.0,10.86,150.0,,'11111222,11111222,99999999' 
WAVCIS,ioos:station:WAVCIS:CSI15:1,2009-05-06T11:00:00Z,28.8332,-90.8320,10.0,11.01,148.0,,'11111222,11111222,99999999' 
WAVCIS,ioos:station:WAVCIS:CSI15:1,2009-05-06T12:00:00Z,28.8332,-90.8320,10.0,11.57,148.0,,'11111222,11111222,99999999' 
WAVCIS,ioos:station:WAVCIS:CSI15:1,2009-05-06T13:00:00Z,28.8332,-90.8320,10.0,10.35,154.0,,'11111222,11111222,99999999' 
WAVCIS,ioos:station:WAVCIS:CSI15:1,2009-05-06T14:00:00Z,28.8332,-90.8320,10.0,8.14,156.0,,'11111222,11111222,99999999' 
WAVCIS,ioos:station:WAVCIS:CSI15:1,2009-05-06T15:00:00Z,28.8332,-90.8320,10.0,7.59,147.0,,'11111222,11111222,99999999' 
WAVCIS,ioos:station:WAVCIS:CSI15:1,2009-05-06T16:00:00Z,28.8332,-90.8320,10.0,8.3,144.0,,'11111222,11111222,99999999' 
WAVCIS,ioos:station:WAVCIS:CSI15:1,2009-05-06T17:00:00Z,28.8332,-90.8320,10.0,8.71,143.0,,'11111222,11111222,99999999' 
WAVCIS,ioos:station:WAVCIS:CSI15:1,2009-05-06T18:00:00Z,28.8332,-90.8320,10.0,8.48,144.0,,'11111222,11111222,99999999' 
WAVCIS,ioos:station:WAVCIS:CSI15:1,2009-05-06T19:00:00Z,28.8332,-90.8320,10.0,9.74,143.0,,'11111222,11111222,99999999' 
WAVCIS,ioos:station:WAVCIS:CSI15:1,2009-05-06T20:00:00Z,28.8332,-90.8320,10.0,7.55,143.0,,'11111222,11111222,99999999' 
WAVCIS,ioos:station:WAVCIS:CSI15:1,2009-05-06T21:00:00Z,28.8332,-90.8320,10.0,6.583,146.0,,'11111222,11111222,99999999' 
WAVCIS,ioos:station:WAVCIS:CSI15:1,2009-05-06T22:00:00Z,28.8332,-90.8320,10.0,6.372,141.0,,'11111222,11111222,99999999' 
WAVCIS,ioos:station:WAVCIS:CSI15:1,2009-05-06T23:00:00Z,28.8332,-90.8320,10.0,6.183,143.0,,'11111222,11111222,99999999' 
WAVCIS,ioos:station:WAVCIS:CSI15:1,2009-05-07T00:00:00Z,28.8332,-90.8320,10.0,7.09,136.0,,'11111222,11111222,99999999' 
WAVCIS,ioos:station:WAVCIS:CSI15:1,2009-05-07T01:00:00Z,28.8332,-90.8320,10.0,7.42,134.0,,'11111222,11111222,99999999' 
WAVCIS,ioos:station:WAVCIS:CSI15:1,2009-05-07T02:00:00Z,28.8332,-90.8320,10.0,8.4,142.0,,'11111222,11111222,99999999' 
WAVCIS,ioos:station:WAVCIS:CSI15:1,2009-05-07T03:00:00Z,28.8332,-90.8320,10.0,9.47,145.0,,'11111222,11111222,99999999' 
WAVCIS,ioos:station:WAVCIS:CSI15:1,2009-05-07T04:00:00Z,28.8332,-90.8320,10.0,9.41,147.0,,'11111222,11111222,99999999' 
WAVCIS,ioos:station:WAVCIS:CSI15:1,2009-05-07T05:00:00Z,28.8332,-90.8320,10.0,9.25,143.0,,'11111222,11111222,99999999' 
WAVCIS,ioos:station:WAVCIS:CSI15:1,2009-05-07T06:00:00Z,28.8332,-90.8320,10.0,9.08,146.0,,'11111222,11111222,99999999' 
WAVCIS,ioos:station:WAVCIS:CSI15:1,2009-05-07T07:00:00Z,28.8332,-90.8320,10.0,8.49,151.0,,'11111222,11111222,99999999' 
WAVCIS,ioos:station:WAVCIS:CSI15:1,2009-05-07T08:00:00Z,28.8332,-90.8320,10.0,7.59,152.0,,'11111222,11111222,99999999' 
WAVCIS,ioos:station:WAVCIS:CSI15:1,2009-05-07T09:00:00Z,28.8332,-90.8320,10.0,6.58,160.0,,'11111222,11111222,99999999' 
WAVCIS,ioos:station:WAVCIS:CSI15:1,2009-05-07T10:00:00Z,28.8332,-90.8320,10.0,4.631,171.0,,'11111222,11111222,99999999' 
WAVCIS,ioos:station:WAVCIS:CSI15:1,2009-05-07T11:00:00Z,28.8332,-90.8320,10.0,4.297,159.0,,'11111222,11111222,99999999' 
WAVCIS,ioos:station:WAVCIS:CSI15:1,2009-05-07T12:00:00Z,28.8332,-90.8320,10.0,3.888,160.0,,'11111222,11111222,99999999' 
WAVCIS,ioos:station:WAVCIS:CSI15:1,2009-05-07T13:00:00Z,28.8332,-90.8320,10.0,4.427,163.0,,'11111222,11111222,99999999' 
WAVCIS,ioos:station:WAVCIS:CSI15:1,2009-05-07T14:00:00Z,28.8332,-90.8320,10.0,5.426,148.0,,'11111222,11111222,99999999' 
WAVCIS,ioos:station:WAVCIS:CSI15:1,2009-05-07T15:00:00Z,28.8332,-90.8320,10.0,5.815,150.0,,'11111222,11111222,99999999' 
WAVCIS,ioos:station:WAVCIS:CSI15:1,2009-05-07T16:00:00Z,28.8332,-90.8320,10.0,6.126,147.0,,'11111222,11111222,99999999' 
WAVCIS,ioos:station:WAVCIS:CSI15:1,2009-05-07T17:00:00Z,28.8332,-90.8320,10.0,6.636,151.0,,'11111222,11111222,99999999' 
WAVCIS,ioos:station:WAVCIS:CSI15:1,2009-05-07T18:00:00Z,28.8332,-90.8320,10.0,6.564,150.0,,'11111222,11111222,99999999' 
WAVCIS,ioos:station:WAVCIS:CSI15:1,2009-05-07T19:00:00Z,28.8332,-90.8320,10.0,7.88,153.0,,'11111222,11111222,99999999' 
WAVCIS,ioos:station:WAVCIS:CSI15:1,2009-05-07T20:00:00Z,28.8332,-90.8320,10.0,7.39,154.0,,'11111222,11111222,99999999' 
WAVCIS,ioos:station:WAVCIS:CSI15:1,2009-05-07T21:00:00Z,28.8332,-90.8320,10.0,6.816,153.0,,'11111222,11111222,99999999' 
WAVCIS,ioos:station:WAVCIS:CSI15:1,2009-05-07T22:00:00Z,28.8332,-90.8320,10.0,7.5,152.0,,'11111222,11111222,99999999' 
WAVCIS,ioos:station:WAVCIS:CSI15:1,2009-05-07T23:00:00Z,28.8332,-90.8320,10.0,7.43,154.0,,'11111222,11111222,99999999' 
WAVCIS,ioos:station:WAVCIS:CSI15:1,2009-05-08T00:00:00Z,28.8332,-90.8320,10.0,6.854,150.0,,'11111222,11111222,99999999' 
WAVCIS,ioos:station:WAVCIS:CSI15:1,2009-05-08T01:00:00Z,28.8332,-90.8320,10.0,7.51,147.0,,'11111222,11111222,99999999' 
WAVCIS,ioos:station:WAVCIS:CSI15:1,2009-05-08T02:00:00Z,28.8332,-90.8320,10.0,8.49,147.0,,'11111222,11111222,99999999' 
WAVCIS,ioos:station:WAVCIS:CSI15:1,2009-05-08T03:00:00Z,28.8332,-90.8320,10.0,8.72,149.0,,'11111222,11111222,99999999' 
WAVCIS,ioos:station:WAVCIS:CSI15:1,2009-05-08T04:00:00Z,28.8332,-90.8320,10.0,9.05,152.0,,'11111222,11111222,99999999' 
WAVCIS,ioos:station:WAVCIS:CSI15:1,2009-05-08T05:00:00Z,28.8332,-90.8320,10.0,8.63,153.0,,'11111222,11111222,99999999' 
WAVCIS,ioos:station:WAVCIS:CSI15:1,2009-05-08T06:00:00Z,28.8332,-90.8320,10.0,8.11,148.0,,'11111222,11111222,99999999' 
WAVCIS,ioos:station:WAVCIS:CSI15:1,2009-05-08T07:00:00Z,28.8332,-90.8320,10.0,8.99,154.0,,'11111222,11111222,99999999' 
WAVCIS,ioos:station:WAVCIS:CSI15:1,2009-05-08T08:00:00Z,28.8332,-90.8320,10.0,8.35,157.0,,'11111222,11111222,99999999' 
WAVCIS,ioos:station:WAVCIS:CSI15:1,2009-05-08T09:00:00Z,28.8332,-90.8320,10.0,9.59,153.0,,'11111222,11111222,99999999' 
WAVCIS,ioos:station:WAVCIS:CSI15:1,2009-05-08T10:00:00Z,28.8332,-90.8320,10.0,9.39,157.0,,'11111222,11111222,99999999' 
WAVCIS,ioos:station:WAVCIS:CSI15:1,2009-05-08T11:00:00Z,28.8332,-90.8320,10.0,9.69,153.0,,'11111222,11111222,99999999' 
WAVCIS,ioos:station:WAVCIS:CSI15:1,2009-05-08T12:00:00Z,28.8332,-90.8320,10.0,9.74,154.0,,'11111222,11111222,99999999' 
WAVCIS,ioos:station:WAVCIS:CSI15:1,2009-05-08T13:00:00Z,28.8332,-90.8320,10.0,10.21,145.0,,'11111222,11111222,99999999' 
WAVCIS,ioos:station:WAVCIS:CSI15:1,2009-05-08T14:00:00Z,28.8332,-90.8320,10.0,10.33,148.0,,'11111222,11111222,99999999' 
WAVCIS,ioos:station:WAVCIS:CSI15:1,2009-05-08T15:00:00Z,28.8332,-90.8320,10.0,10.55,151.0,,'11111222,11111222,99999999' 
WAVCIS,ioos:station:WAVCIS:CSI15:1,2009-05-08T16:00:00Z,28.8332,-90.8320,10.0,11.12,154.0,,'11111222,11111222,99999999' 
WAVCIS,ioos:station:WAVCIS:CSI15:1,2009-05-08T17:00:00Z,28.8332,-90.8320,10.0,8.79,151.0,,'11111222,11111222,99999999' 
WAVCIS,ioos:station:WAVCIS:CSI15:1,2009-05-08T18:00:00Z,28.8332,-90.8320,10.0,8.61,156.0,,'11111222,11111222,99999999' 
WAVCIS,ioos:station:WAVCIS:CSI15:1,2009-05-08T19:00:00Z,28.8332,-90.8320,10.0,8.35,152.0,,'11111222,11111222,99999999' 
WAVCIS,ioos:station:WAVCIS:CSI15:1,2009-05-08T20:00:00Z,28.8332,-90.8320,10.0,8.54,145.0,,'11111222,11111222,99999999' 
WAVCIS,ioos:station:WAVCIS:CSI15:1,2009-05-08T21:00:00Z,28.8332,-90.8320,10.0,9.2,146.0,,'11111222,11111222,99999999' 
WAVCIS,ioos:station:WAVCIS:CSI15:1,2009-05-08T22:00:00Z,28.8332,-90.8320,10.0,10.15,144.0,,'11111222,11111222,99999999' 
WAVCIS,ioos:station:WAVCIS:CSI15:1,2009-05-08T23:00:00Z,28.8332,-90.8320,10.0,10.28,143.0,,'11111222,11111222,99999999' 
WAVCIS,ioos:station:WAVCIS:CSI15:1,2009-05-09T00:00:00Z,28.8332,-90.8320,10.0,9.95,145.0,,'11111222,11111222,99999999' 
WAVCIS,ioos:station:WAVCIS:CSI15:1,2009-05-09T01:00:00Z,28.8332,-90.8320,10.0,10.09,146.0,,'11111222,11111222,99999999' 
WAVCIS,ioos:station:WAVCIS:CSI15:1,2009-05-09T02:00:00Z,28.8332,-90.8320,10.0,10.92,144.0,,'11111222,11111222,99999999' 
WAVCIS,ioos:station:WAVCIS:CSI15:1,2009-05-09T03:00:00Z,28.8332,-90.8320,10.0,10.4,138.0,,'11111222,11111222,99999999' 
WAVCIS,ioos:station:WAVCIS:CSI15:1,2009-05-09T04:00:00Z,28.8332,-90.8320,10.0,10.22,135.0,,'11111222,11111222,99999999' 
WAVCIS,ioos:station:WAVCIS:CSI15:1,2009-05-09T05:00:00Z,28.8332,-90.8320,10.0,10.47,142.0,,'11111222,11111222,99999999' 